Weather History for KDSM - February, 2013

Change the Weather History Date:

Wednesday, February 27, 2013

  Actual Average Record
Temperature  
Mean Temperature 29 °F 32 °F  
Max Temperature 32 °F 41 °F 68 °F (1981)
Min Temperature 26 °F 23 °F -11 °F (1962)
Degree Days  
Heating Degree Days 36 33  
Month to date heating degree days 978 1018  
Since 1 July heating degree days 4320 4798  
Cooling Degree Days 0 0  
Month to date cooling degree days 0 0  
Year to date cooling degree days 0 0  
Moisture  
Dew Point 24 °F    
Average Humidity 79    
Maximum Humidity 92    
Minimum Humidity 66    
Precipitation  
Precipitation 0.19 in 0.06 in 1.76 in (1948)
Month to date precipitation 1.74 1.23  
Year to date precipitation 2.85 2.23  
Snow  
Snow 3.00 in 0.20 in 3.10 in (1886)
Month to date snowfall 15.7 7.7  
Since 1 July snowfall 38.7 28.1  
Snow Depth 9.00 in    
Sea Level Pressure  
Sea Level Pressure 29.86 in    
Wind  
Wind Speed 13 mph (NW)    
Max Wind Speed 24 mph    
Max Gust Speed 30 mph    
Visibility 3 miles    
Events Fog , Snow    
T = Trace of Precipitation, MM = Missing Value Source: NWS Daily Summary

Daily Weather History Graph

Daily Weather History Graph

Search for Another Location

Airport or City:

Trip Planner

Search our weather history database for the weather conditions in past years. The results will help you decide how hot, cold, wet, or windy it might be!

Date:

Astronomy

Feb. 27, 2013 Rise Set
Actual Time 6:51 AM CST 6:03 PM CST
Civil Twilight 6:24 AM CST 6:31 PM CST
Nautical Twilight 5:52 AM CST 7:03 PM CST
Astronomical Twilight 5:19 AM CST 7:35 PM CST
Moon 8:27 PM CST (2/27) 7:25 AM CST (2/27)
Length of Visible Light 12h 06m
Length of Day
11h 11m
Waning Gibbous, 96% of the Moon is Illuminated
Feb 27
Waning Gibbous
Mar 4
Last Quarter
Mar 11
New
Mar 19
First Quarter
Mar 27
Full

Hourly Weather History & Observations

Time (CST) Temp. Windchill Dew Point Humidity Pressure Visibility Wind Dir Wind Speed Gust Speed Precip Events Conditions
12:03 AM 30.0 °F 21.7 °F 27.0 °F 88% 29.79 in 1.0 mi NNW 9.2 mph - 0.00 in Snow Light Snow
12:23 AM 30.0 °F 21.7 °F 26.1 °F 85% 29.79 in 1.0 mi NW 9.2 mph - 0.01 in Snow Light Snow
12:45 AM 28.9 °F 21.1 °F 26.1 °F 89% 29.78 in 1.0 mi NW 8.1 mph - 0.01 in Snow Light Snow
12:54 AM 28.9 °F 21.1 °F 26.1 °F 89% 29.82 in 1.0 mi NNW 8.1 mph - 0.01 in Snow Light Snow
1:08 AM 28.9 °F 20.4 °F 26.1 °F 89% 29.79 in 1.0 mi NNW 9.2 mph - 0.01 in Snow Light Snow
1:37 AM 28.9 °F 21.1 °F 26.1 °F 89% 29.78 in 1.0 mi NNW 8.1 mph - 0.02 in Snow Light Snow
1:54 AM 30.0 °F 21.1 °F 26.1 °F 85% 29.81 in 1.0 mi NNW 10.4 mph - 0.02 in Snow Light Snow
2:54 AM 28.0 °F 18.1 °F 25.0 °F 88% 29.81 in 0.8 mi NW 11.5 mph - 0.04 in Snow Light Snow
3:11 AM 28.0 °F 18.1 °F 25.0 °F 88% 29.78 in 1.0 mi NW 11.5 mph - 0.01 in Snow Light Snow
3:34 AM 28.0 °F 18.1 °F 25.0 °F 88% 29.78 in 1.0 mi NW 11.5 mph - 0.02 in Snow Light Snow
3:54 AM 28.0 °F 18.6 °F 24.1 °F 85% 29.82 in 1.0 mi NNW 10.4 mph - 0.02 in Snow Light Snow
4:54 AM 28.0 °F 19.3 °F 24.1 °F 85% 29.81 in 1.0 mi NNW 9.2 mph - 0.01 in Snow Light Snow
5:13 AM 27.0 °F 17.3 °F 24.1 °F 89% 29.79 in 1.0 mi NNW 10.4 mph - 0.01 in Snow Light Snow
5:51 AM 26.6 °F 17.5 °F 24.8 °F 93% 29.79 in 1.0 mi NW 9.2 mph - 0.02 in Snow Light Snow
5:54 AM 26.6 °F 17.5 °F 24.8 °F 93% 29.79 in 1.0 mi NW 9.2 mph - N/A Snow Light Snow
6:54 AM 27.0 °F 18.0 °F 23.0 °F 85% 29.83 in 2.0 mi NW 9.2 mph - 0.00 in Snow Light Snow
7:06 AM 27.0 °F 17.3 °F 23.0 °F 85% 29.80 in 1.5 mi NNW 10.4 mph - 0.00 in Snow Light Snow
7:22 AM 27.0 °F 16.7 °F 23.0 °F 85% 29.80 in 2.0 mi NNW 11.5 mph - 0.00 in Snow Light Snow
7:45 AM 27.0 °F 15.6 °F 23.0 °F 85% 29.81 in 1.2 mi NNW 13.8 mph - 0.00 in Snow Light Snow
7:54 AM 27.0 °F 15.2 °F 23.0 °F 85% 29.84 in 1.5 mi NNW 15.0 mph - 0.00 in Snow Light Snow
8:31 AM 27.0 °F 16.1 °F 23.0 °F 85% 29.83 in 1.0 mi NNW 12.7 mph - 0.00 in Snow Light Snow
8:36 AM 28.0 °F 17.5 °F 24.1 °F 85% 29.83 in 0.5 mi NNW 12.7 mph - 0.01 in Fog , Snow Light Snow
8:54 AM 28.4 °F 17.5 °F 24.8 °F 86% 29.83 in 0.5 mi NNW 13.8 mph - N/A Snow Light Snow
9:09 AM 28.0 °F 17.5 °F 24.1 °F 85% 29.83 in 0.5 mi NNW 12.7 mph - 0.01 in Snow Light Snow
9:54 AM 28.9 °F 19.2 °F 24.1 °F 82% 29.87 in 1.0 mi NNW 11.5 mph - 0.03 in Snow Light Snow
9:58 AM 28.9 °F 19.2 °F 24.1 °F 82% 29.84 in 2.0 mi NNW 11.5 mph 20.7 mph 0.00 in Snow Light Snow
10:54 AM 28.9 °F 18.6 °F 24.1 °F 82% 29.88 in 1.0 mi NW 12.7 mph - 0.00 in Snow Light Snow
11:27 AM 28.9 °F 19.2 °F 25.0 °F 85% 29.85 in 0.8 mi NW 11.5 mph - 0.01 in Snow Light Snow
11:40 AM 28.9 °F 19.2 °F 25.0 °F 85% 29.86 in 0.8 mi NW 11.5 mph - 0.02 in Snow Light Snow
11:54 AM 28.9 °F 18.6 °F 25.0 °F 85% 29.89 in 1.0 mi NW 12.7 mph - 0.02 in Snow Light Snow
12:02 PM 30.0 °F 19.5 °F 25.0 °F 82% 29.86 in 2.0 mi NW 13.8 mph - 0.00 in Snow Light Snow
12:23 PM 30.0 °F 19.5 °F 25.0 °F 82% 29.85 in 2.0 mi NW 13.8 mph - 0.00 in Snow Light Snow
12:54 PM 30.0 °F 17.9 °F 25.0 °F 82% 29.89 in 1.2 mi NW 18.4 mph - 0.01 in Snow Light Snow
1:11 PM 30.0 °F 18.7 °F 25.0 °F 82% 29.85 in 1.5 mi NW 16.1 mph - 0.00 in Snow Light Snow
1:30 PM 30.0 °F 17.9 °F 25.0 °F 82% 29.85 in 1.5 mi NW 18.4 mph - 0.00 in Snow Light Snow
1:54 PM 30.0 °F 17.9 °F 24.1 °F 79% 29.88 in 1.5 mi NW 18.4 mph 26.5 mph 0.00 in Snow Light Snow
2:05 PM 30.0 °F 17.2 °F 24.1 °F 79% 29.85 in 3.0 mi NW 20.7 mph - 0.00 in Snow Light Snow
2:29 PM 30.0 °F 18.3 °F 24.1 °F 79% 29.86 in 3.0 mi NW 17.3 mph 28.8 mph 0.00 in   Overcast
2:54 PM 30.9 °F 19.4 °F 24.1 °F 76% 29.89 in 3.0 mi NW 17.3 mph 26.5 mph 0.00 in   Overcast
3:07 PM 30.9 °F 19.1 °F 24.1 °F 76% 29.87 in 3.0 mi NW 18.4 mph 28.8 mph N/A   Overcast
3:54 PM 30.9 °F 20.7 °F 24.1 °F 76% 29.91 in 10.0 mi NW 13.8 mph - N/A   Overcast
4:06 PM 30.9 °F 18.4 °F 24.1 °F 76% 29.88 in 10.0 mi NNW 20.7 mph 28.8 mph N/A   Overcast
4:15 PM 30.9 °F 18.7 °F 24.1 °F 76% 29.88 in 9.0 mi NNW 19.6 mph - N/A   Overcast
4:34 PM 30.9 °F 19.4 °F 24.1 °F 76% 29.89 in 10.0 mi NNW 17.3 mph 25.3 mph N/A   Overcast
4:54 PM 30.9 °F 19.8 °F 24.1 °F 76% 29.93 in 10.0 mi NNW 16.1 mph - N/A   Overcast
5:54 PM 30.9 °F 22.8 °F 23.0 °F 72% 29.94 in 10.0 mi NNW 9.2 mph - 0.00 in   Overcast
6:30 PM 30.9 °F 22.2 °F 24.1 °F 76% 29.91 in 10.0 mi NW 10.4 mph - 0.00 in   Overcast
6:54 PM 30.9 °F 22.2 °F 24.1 °F 76% 29.96 in 10.0 mi NNW 10.4 mph - 0.00 in   Overcast
7:54 PM 32.0 °F 24.2 °F 23.0 °F 69% 29.96 in 10.0 mi NW 9.2 mph - N/A   Overcast
8:54 PM 32.0 °F 23.6 °F 23.0 °F 69% 29.98 in 10.0 mi NNW 10.4 mph - N/A   Overcast
9:54 PM 32.0 °F 20.8 °F 24.1 °F 73% 29.99 in 5.0 mi NW 17.3 mph - 0.00 in Snow Light Snow
10:22 PM 30.0 °F 19.1 °F 24.1 °F 79% 29.96 in 3.0 mi NNW 15.0 mph 23.0 mph 0.00 in Snow Light Snow
10:54 PM 28.9 °F 19.2 °F 24.1 °F 82% 30.01 in 4.0 mi NNW 11.5 mph - 0.00 in Snow Light Snow